Time,TemperatureF,DewpointF,PressureIn,WindDirection,WindDirectionDegrees,WindSpeedMPH,WindSpeedGustMPH,Humidity,HourlyPrecipIn,Conditions,Clouds,dailyrainin,SoftwareType,DateUTC
2014-02-22 00:03:00,51.8,41.9,29.98,NNE,27,2.0,2.0,69,0.00,,,0.00,Wunderground v.1.13,2014-02-22 08:03:00,
2014-02-22 00:10:00,51.7,41.9,29.98,ENE,57,0.0,0.0,69,0.00,,,0.00,Wunderground v.1.13,2014-02-22 08:10:00,
2014-02-22 00:15:00,51.5,41.7,29.98,ENE,57,0.0,0.0,69,0.00,,,0.00,Wunderground v.1.13,2014-02-22 08:15:00,
2014-02-22 00:20:00,51.4,41.6,29.98,ENE,57,1.0,1.0,69,0.00,,,0.00,Wunderground v.1.13,2014-02-22 08:20:00,
2014-02-22 00:26:00,51.2,41.7,29.99,ENE,57,0.0,0.0,70,0.00,,,0.00,Wunderground v.1.13,2014-02-22 08:26:00,
2014-02-22 00:32:00,51.1,41.7,29.99,ENE,57,0.0,0.0,70,0.00,,,0.00,Wunderground v.1.13,2014-02-22 08:32:00,
2014-02-22 00:37:00,50.9,41.5,29.99,ENE,57,0.0,0.0,70,0.00,,,0.00,Wunderground v.1.13,2014-02-22 08:37:00,
2014-02-22 00:42:00,50.8,41.4,29.98,ENE,57,0.0,0.0,70,0.00,,,0.00,Wunderground v.1.13,2014-02-22 08:42:00,
2014-02-22 00:47:00,50.6,41.2,29.98,ENE,57,0.0,0.0,70,0.00,,,0.00,Wunderground v.1.13,2014-02-22 08:47:00,
2014-02-22 00:52:00,50.5,41.4,29.98,ENE,57,0.0,0.0,71,0.00,,,0.00,Wunderground v.1.13,2014-02-22 08:52:00,
2014-02-22 00:58:00,50.3,41.3,29.98,ENE,57,0.0,0.0,71,0.00,,,0.00,Wunderground v.1.13,2014-02-22 08:58:00,
2014-02-22 01:03:00,50.1,41.1,29.98,ENE,57,1.0,1.0,71,0.00,,,0.00,Wunderground v.1.13,2014-02-22 09:03:00,
2014-02-22 01:10:00,50.0,41.0,29.98,ENE,57,0.0,0.0,71,0.00,,,0.00,Wunderground v.1.13,2014-02-22 09:10:00,
2014-02-22 01:15:00,49.9,40.9,29.98,ENE,57,0.0,0.0,71,0.00,,,0.00,Wunderground v.1.13,2014-02-22 09:15:00,
2014-02-22 01:20:00,49.8,40.8,29.98,ENE,57,0.0,0.0,71,0.00,,,0.00,Wunderground v.1.13,2014-02-22 09:20:00,
2014-02-22 01:25:00,49.7,40.7,29.98,ENE,57,0.0,0.0,71,0.00,,,0.00,Wunderground v.1.13,2014-02-22 09:25:00,
2014-02-22 01:31:00,49.6,40.6,29.98,ENE,57,0.0,0.0,71,0.00,,,0.00,Wunderground v.1.13,2014-02-22 09:31:00,
2014-02-22 01:37:00,49.5,40.5,29.98,ENE,57,0.0,0.0,71,0.00,,,0.00,Wunderground v.1.13,2014-02-22 09:37:00,
2014-02-22 01:42:00,49.4,40.4,29.98,ENE,57,0.0,0.0,71,0.00,,,0.00,Wunderground v.1.13,2014-02-22 09:42:00,
2014-02-22 01:47:00,49.2,40.6,29.98,ENE,57,0.0,0.0,72,0.00,,,0.00,Wunderground v.1.13,2014-02-22 09:47:00,
2014-02-22 01:52:00,49.1,40.5,29.99,ENE,57,0.0,0.0,72,0.00,,,0.00,Wunderground v.1.13,2014-02-22 09:52:00,
2014-02-22 01:58:00,49.0,40.4,29.99,ENE,57,0.0,0.0,72,0.00,,,0.00,Wunderground v.1.13,2014-02-22 09:58:00,
2014-02-22 02:03:00,48.8,40.5,29.99,ENE,57,0.0,0.0,73,0.00,,,0.00,Wunderground v.1.13,2014-02-22 10:03:00,
2014-02-22 02:10:00,48.7,40.4,29.99,ENE,57,0.0,1.0,73,0.00,,,0.00,Wunderground v.1.13,2014-02-22 10:10:00,
2014-02-22 02:15:00,48.6,40.3,29.99,ENE,57,0.0,0.0,73,0.00,,,0.00,Wunderground v.1.13,2014-02-22 10:15:00,
2014-02-22 02:20:00,48.5,40.2,29.99,ENE,57,0.0,0.0,73,0.00,,,0.00,Wunderground v.1.13,2014-02-22 10:20:00,
2014-02-22 02:25:00,48.3,40.0,29.99,ENE,57,0.0,0.0,73,0.00,,,0.00,Wunderground v.1.13,2014-02-22 10:25:00,
2014-02-22 02:30:00,48.2,39.9,29.99,ENE,57,0.0,0.0,73,0.00,,,0.00,Wunderground v.1.13,2014-02-22 10:30:00,
2014-02-22 02:35:00,48.1,39.9,29.99,ENE,57,0.0,0.0,73,0.00,,,0.00,Wunderground v.1.13,2014-02-22 10:35:00,
2014-02-22 02:40:00,48.0,40.1,29.99,ENE,57,0.0,0.0,74,0.00,,,0.00,Wunderground v.1.13,2014-02-22 10:40:00,
2014-02-22 02:45:00,47.9,40.0,29.98,ENE,57,0.0,0.0,74,0.00,,,0.00,Wunderground v.1.13,2014-02-22 10:45:00,
2014-02-22 02:50:00,47.8,39.9,29.98,ENE,57,0.0,0.0,74,0.00,,,0.00,Wunderground v.1.13,2014-02-22 10:50:00,
2014-02-22 02:55:00,47.7,39.8,29.98,ENE,57,0.0,0.0,74,0.00,,,0.00,Wunderground v.1.13,2014-02-22 10:55:00,
2014-02-22 03:00:00,47.6,40.1,29.98,ENE,57,0.0,1.0,75,0.00,,,0.00,Wunderground v.1.13,2014-02-22 11:00:00,
2014-02-22 03:05:00,47.5,40.0,29.98,ENE,57,0.0,0.0,75,0.00,,,0.00,Wunderground v.1.13,2014-02-22 11:05:00,
2014-02-22 03:11:00,47.4,39.9,29.98,ENE,57,0.0,0.0,75,0.00,,,0.00,Wunderground v.1.13,2014-02-22 11:11:00,
2014-02-22 03:16:00,47.3,39.8,29.98,ENE,57,0.0,0.0,75,0.00,,,0.00,Wunderground v.1.13,2014-02-22 11:16:00,
2014-02-22 03:21:00,47.2,39.7,29.98,ENE,57,0.0,0.0,75,0.00,,,0.00,Wunderground v.1.13,2014-02-22 11:21:00,
2014-02-22 03:26:00,47.1,39.6,29.98,ENE,57,0.0,0.0,75,0.00,,,0.00,Wunderground v.1.13,2014-02-22 11:26:00,
2014-02-22 03:31:00,47.0,39.5,29.98,ENE,57,0.0,0.0,75,0.00,,,0.00,Wunderground v.1.13,2014-02-22 11:31:00,
2014-02-22 03:36:00,46.9,39.4,29.98,ENE,57,0.0,0.0,75,0.00,,,0.00,Wunderground v.1.13,2014-02-22 11:36:00,
2014-02-22 03:41:00,46.8,39.3,29.98,ENE,57,0.0,0.0,75,0.00,,,0.00,Wunderground v.1.13,2014-02-22 11:41:00,
2014-02-22 03:46:00,46.7,39.5,29.98,ENE,57,0.0,0.0,76,0.00,,,0.00,Wunderground v.1.13,2014-02-22 11:46:00,
2014-02-22 03:51:00,46.6,39.4,29.98,ENE,57,0.0,0.0,76,0.00,,,0.00,Wunderground v.1.13,2014-02-22 11:51:00,
2014-02-22 03:56:00,46.5,39.3,29.98,ENE,57,0.0,0.0,76,0.00,,,0.00,Wunderground v.1.13,2014-02-22 11:56:00,
2014-02-22 04:01:00,46.4,39.6,29.98,ENE,57,0.0,0.0,77,0.00,,,0.00,Wunderground v.1.13,2014-02-22 12:01:00,
2014-02-22 04:06:00,46.3,39.5,29.98,ENE,57,0.0,0.0,77,0.00,,,0.00,Wunderground v.1.13,2014-02-22 12:06:00,
2014-02-22 04:11:00,46.2,39.4,29.98,ENE,57,0.0,0.0,77,0.00,,,0.00,Wunderground v.1.13,2014-02-22 12:11:00,
2014-02-22 04:16:00,46.1,39.3,29.98,ENE,57,0.0,0.0,77,0.00,,,0.00,Wunderground v.1.13,2014-02-22 12:16:00,
2014-02-22 04:21:00,46.1,39.6,29.98,ENE,57,0.0,0.0,78,0.00,,,0.00,Wunderground v.1.13,2014-02-22 12:21:00,
2014-02-22 04:26:00,46.0,39.5,29.98,ENE,57,0.0,0.0,78,0.00,,,0.00,Wunderground v.1.13,2014-02-22 12:26:00,
2014-02-22 04:31:00,46.0,39.5,29.98,ENE,57,0.0,1.0,78,0.00,,,0.00,Wunderground v.1.13,2014-02-22 12:31:00,
2014-02-22 04:36:00,45.9,39.8,29.98,ENE,57,0.0,1.0,79,0.00,,,0.00,Wunderground v.1.13,2014-02-22 12:36:00,
2014-02-22 04:41:00,45.9,39.8,29.98,ENE,57,0.0,0.0,79,0.00,,,0.00,Wunderground v.1.13,2014-02-22 12:41:00,
2014-02-22 04:46:00,45.8,39.7,29.98,ENE,57,0.0,0.0,79,0.00,,,0.00,Wunderground v.1.13,2014-02-22 12:46:00,
2014-02-22 04:52:00,45.8,39.7,29.98,ENE,57,0.0,0.0,79,0.00,,,0.00,Wunderground v.1.13,2014-02-22 12:52:00,
2014-02-22 04:57:00,45.8,39.7,29.98,ENE,57,0.0,0.0,79,0.00,,,0.00,Wunderground v.1.13,2014-02-22 12:57:00,
2014-02-22 05:02:00,45.8,39.7,29.98,ENE,57,0.0,0.0,79,0.00,,,0.00,Wunderground v.1.13,2014-02-22 13:02:00,
2014-02-22 05:07:00,45.7,39.6,29.98,ENE,57,0.0,0.0,79,0.00,,,0.00,Wunderground v.1.13,2014-02-22 13:07:00,
2014-02-22 05:12:00,45.6,39.5,29.98,ENE,57,0.0,0.0,79,0.00,,,0.00,Wunderground v.1.13,2014-02-22 13:12:00,
2014-02-22 05:17:00,45.6,39.5,29.98,ENE,57,0.0,0.0,79,0.00,,,0.00,Wunderground v.1.13,2014-02-22 13:17:00,
2014-02-22 05:22:00,45.5,39.4,29.98,ENE,57,0.0,0.0,79,0.00,,,0.00,Wunderground v.1.13,2014-02-22 13:22:00,
2014-02-22 05:27:00,45.4,39.6,29.99,ENE,57,0.0,0.0,80,0.00,,,0.00,Wunderground v.1.13,2014-02-22 13:27:00,
2014-02-22 05:32:00,45.3,39.5,29.98,ENE,57,0.0,0.0,80,0.00,,,0.00,Wunderground v.1.13,2014-02-22 13:32:00,
2014-02-22 05:37:00,45.2,39.1,29.99,ENE,57,0.0,0.0,79,0.00,,,0.00,Wunderground v.1.13,2014-02-22 13:37:00,
2014-02-22 05:42:00,45.1,39.3,29.98,ENE,57,0.0,0.0,80,0.00,,,0.00,Wunderground v.1.13,2014-02-22 13:42:00,
2014-02-22 05:47:00,45.0,39.2,29.98,ENE,57,0.0,0.0,80,0.00,,,0.00,Wunderground v.1.13,2014-02-22 13:47:00,
2014-02-22 05:52:00,44.9,39.1,29.98,ENE,57,0.0,0.0,80,0.00,,,0.00,Wunderground v.1.13,2014-02-22 13:52:00,
2014-02-22 05:57:00,44.8,39.0,29.98,ENE,57,0.0,0.0,80,0.00,,,0.00,Wunderground v.1.13,2014-02-22 13:57:00,
2014-02-22 06:02:00,44.9,39.4,29.98,ENE,57,0.0,0.0,81,0.00,,,0.00,Wunderground v.1.13,2014-02-22 14:02:00,
2014-02-22 06:07:00,44.8,39.3,29.98,ENE,57,0.0,0.0,81,0.00,,,0.00,Wunderground v.1.13,2014-02-22 14:07:00,
2014-02-22 06:12:00,44.7,39.2,29.98,NNE,30,0.0,0.0,81,0.00,,,0.00,Wunderground v.1.13,2014-02-22 14:12:00,
2014-02-22 06:17:00,44.8,39.6,29.98,North,9,1.0,1.0,82,0.00,,,0.00,Wunderground v.1.13,2014-02-22 14:17:00,
2014-02-22 06:22:00,45.0,39.8,29.98,NW,321,1.0,1.0,82,0.00,,,0.00,Wunderground v.1.13,2014-02-22 14:22:00,
2014-02-22 06:27:00,45.1,40.2,29.99,NW,319,0.0,1.0,83,0.00,,,0.00,Wunderground v.1.13,2014-02-22 14:27:00,
2014-02-22 06:32:00,45.2,40.3,29.99,NW,320,0.0,0.0,83,0.00,,,0.00,Wunderground v.1.13,2014-02-22 14:32:00,
2014-02-22 06:37:00,45.2,40.3,29.99,NW,320,0.0,0.0,83,0.00,,,0.00,Wunderground v.1.13,2014-02-22 14:37:00,
2014-02-22 06:42:00,45.2,40.3,29.99,NW,319,0.0,0.0,83,0.00,,,0.00,Wunderground v.1.13,2014-02-22 14:42:00,
2014-02-22 06:47:00,45.2,40.0,29.99,NW,320,0.0,0.0,82,0.00,,,0.00,Wunderground v.1.13,2014-02-22 14:47:00,
2014-02-22 06:52:00,45.2,40.0,29.99,NW,319,0.0,0.0,82,0.00,,,0.00,Wunderground v.1.13,2014-02-22 14:52:00,
2014-02-22 06:57:00,45.2,40.0,29.99,NW,319,0.0,0.0,82,0.00,,,0.00,Wunderground v.1.13,2014-02-22 14:57:00,
2014-02-22 07:02:00,45.1,39.9,29.99,NW,320,0.0,0.0,82,0.00,,,0.00,Wunderground v.1.13,2014-02-22 15:02:00,
2014-02-22 07:10:00,45.0,39.8,29.99,NW,319,0.0,0.0,82,0.00,,,0.00,Wunderground v.1.13,2014-02-22 15:10:00,
2014-02-22 07:15:00,45.0,39.8,29.99,NW,319,0.0,0.0,82,0.00,,,0.00,Wunderground v.1.13,2014-02-22 15:15:00,
2014-02-22 07:20:00,45.0,39.8,30.00,NW,319,0.0,0.0,82,0.00,,,0.00,Wunderground v.1.13,2014-02-22 15:20:00,
2014-02-22 07:25:00,45.0,39.8,30.00,NW,319,0.0,0.0,82,0.00,,,0.00,Wunderground v.1.13,2014-02-22 15:25:00,
2014-02-22 07:30:00,45.1,40.2,30.00,NW,319,0.0,0.0,83,0.00,,,0.00,Wunderground v.1.13,2014-02-22 15:30:00,
2014-02-22 07:35:00,45.4,40.5,30.00,NW,319,0.0,1.0,83,0.00,,,0.00,Wunderground v.1.13,2014-02-22 15:35:00,
2014-02-22 07:40:00,45.9,41.0,30.00,NW,319,0.0,0.0,83,0.00,,,0.00,Wunderground v.1.13,2014-02-22 15:40:00,
2014-02-22 07:45:00,46.4,41.5,30.00,NW,319,0.0,0.0,83,0.00,,,0.00,Wunderground v.1.13,2014-02-22 15:45:00,
2014-02-22 07:50:00,46.9,42.0,30.00,NW,319,0.0,0.0,83,0.00,,,0.00,Wunderground v.1.13,2014-02-22 15:50:00,
2014-02-22 07:55:00,47.5,42.3,30.00,NW,319,0.0,0.0,82,0.00,,,0.00,Wunderground v.1.13,2014-02-22 15:55:00,
2014-02-22 08:00:00,48.7,42.8,30.00,NW,319,0.0,0.0,80,0.00,,,0.00,Wunderground v.1.13,2014-02-22 16:00:00,
2014-02-22 08:05:00,49.9,42.6,30.00,NW,319,0.0,0.0,76,0.00,,,0.00,Wunderground v.1.13,2014-02-22 16:05:00,
2014-02-22 08:10:00,50.7,42.7,30.01,NW,319,0.0,0.0,74,0.00,,,0.00,Wunderground v.1.13,2014-02-22 16:10:00,
2014-02-22 08:15:00,52.7,42.8,30.01,NW,319,0.0,0.0,69,0.00,,,0.00,Wunderground v.1.13,2014-02-22 16:15:00,
2014-02-22 08:20:00,54.1,43.4,30.01,NW,319,0.0,1.0,67,0.00,,,0.00,Wunderground v.1.13,2014-02-22 16:20:00,
2014-02-22 08:25:00,55.4,42.6,30.01,NW,319,0.0,1.0,62,0.00,,,0.00,Wunderground v.1.13,2014-02-22 16:25:00,
2014-02-22 08:30:00,56.4,42.2,30.01,NNW,348,1.0,1.0,59,0.00,,,0.00,Wunderground v.1.13,2014-02-22 16:30:00,
2014-02-22 08:35:00,57.3,41.7,30.01,ENE,62,0.0,1.0,56,0.00,,,0.00,Wunderground v.1.13,2014-02-22 16:35:00,
2014-02-22 08:40:00,58.0,41.9,30.01,NNW,337,0.0,1.0,55,0.00,,,0.00,Wunderground v.1.13,2014-02-22 16:40:00,
2014-02-22 08:45:00,58.8,41.2,30.01,NNW,338,0.0,4.0,52,0.00,,,0.00,Wunderground v.1.13,2014-02-22 16:45:00,
2014-02-22 08:50:00,59.0,40.4,30.01,NE,34,2.0,6.0,50,0.00,,,0.00,Wunderground v.1.13,2014-02-22 16:50:00,
2014-02-22 08:55:00,59.4,40.7,30.01,ENE,69,1.0,3.0,50,0.00,,,0.00,Wunderground v.1.13,2014-02-22 16:55:00,
2014-02-22 09:00:00,59.7,40.5,30.01,NNE,33,1.0,3.0,49,0.00,,,0.00,Wunderground v.1.13,2014-02-22 17:00:00,
2014-02-22 09:05:00,60.0,40.2,30.01,ENE,63,0.0,4.0,48,0.00,,,0.00,Wunderground v.1.13,2014-02-22 17:05:00,
2014-02-22 09:10:00,60.1,40.3,30.01,NE,55,4.0,4.0,48,0.00,,,0.00,Wunderground v.1.13,2014-02-22 17:10:00,
2014-02-22 09:15:00,60.5,40.2,30.01,ENE,57,2.0,3.0,47,0.00,,,0.00,Wunderground v.1.13,2014-02-22 17:15:00,
2014-02-22 09:20:00,60.6,40.2,30.01,NE,55,1.0,2.0,47,0.00,,,0.00,Wunderground v.1.13,2014-02-22 17:20:00,
2014-02-22 09:25:00,61.1,40.1,30.01,North,349,0.0,3.0,46,0.00,,,0.00,Wunderground v.1.13,2014-02-22 17:25:00,
2014-02-22 09:30:00,61.5,40.5,30.01,ENE,67,0.0,1.0,46,0.00,,,0.00,Wunderground v.1.13,2014-02-22 17:30:00,
2014-02-22 09:35:00,61.5,39.9,30.01,ENE,59,2.0,3.0,45,0.00,,,0.00,Wunderground v.1.13,2014-02-22 17:35:00,
2014-02-22 09:40:00,61.6,40.0,30.01,NE,36,3.0,4.0,45,0.00,,,0.00,Wunderground v.1.13,2014-02-22 17:40:00,
2014-02-22 09:45:00,61.6,40.0,30.01,ENE,67,1.0,3.0,45,0.00,,,0.00,Wunderground v.1.13,2014-02-22 17:45:00,
2014-02-22 09:50:00,61.4,41.0,30.01,ENE,60,1.0,2.0,47,0.00,,,0.00,Wunderground v.1.13,2014-02-22 17:50:00,
2014-02-22 09:56:00,62.2,40.6,30.01,NE,44,0.0,3.0,45,0.00,,,0.00,Wunderground v.1.13,2014-02-22 17:56:00,
2014-02-22 10:01:00,62.3,40.1,30.01,NE,55,2.0,3.0,44,0.00,,,0.00,Wunderground v.1.13,2014-02-22 18:01:00,
2014-02-22 10:06:00,62.4,40.8,30.01,NE,50,1.0,3.0,45,0.00,,,0.00,Wunderground v.1.13,2014-02-22 18:06:00,
2014-02-22 10:11:00,62.3,40.1,30.01,NE,51,1.0,2.0,44,0.00,,,0.00,Wunderground v.1.13,2014-02-22 18:11:00,
2014-02-22 10:16:00,62.5,40.3,30.01,NE,46,1.0,4.0,44,0.00,,,0.00,Wunderground v.1.13,2014-02-22 18:16:00,
2014-02-22 10:21:00,62.6,41.5,30.01,NE,39,0.0,3.0,46,0.00,,,0.00,Wunderground v.1.13,2014-02-22 18:21:00,
2014-02-22 10:26:00,63.8,40.9,30.01,NNE,14,0.0,2.0,43,0.00,,,0.00,Wunderground v.1.13,2014-02-22 18:26:00,
2014-02-22 10:31:00,64.5,41.5,30.01,NE,35,1.0,1.0,43,0.00,,,0.00,Wunderground v.1.13,2014-02-22 18:31:00,
2014-02-22 10:36:00,65.5,40.5,30.01,ENE,61,5.0,5.0,40,0.00,,,0.00,Wunderground v.1.13,2014-02-22 18:36:00,
2014-02-22 10:41:00,64.7,40.4,30.01,NE,56,1.0,7.0,41,0.00,,,0.00,Wunderground v.1.13,2014-02-22 18:41:00,
2014-02-22 10:46:00,65.0,41.3,30.01,ENE,60,3.0,4.0,42,0.00,,,0.00,Wunderground v.1.13,2014-02-22 18:46:00,
2014-02-22 10:51:00,65.1,40.8,30.01,NE,51,1.0,5.0,41,0.00,,,0.00,Wunderground v.1.13,2014-02-22 18:51:00,
2014-02-22 10:56:00,66.3,41.9,30.01,NW,323,2.0,3.0,41,0.00,,,0.00,Wunderground v.1.13,2014-02-22 18:56:00,
2014-02-22 11:01:00,66.3,38.5,30.01,ENE,59,1.0,4.0,36,0.00,,,0.00,Wunderground v.1.13,2014-02-22 19:01:00,
2014-02-22 11:06:00,66.4,40.0,30.00,North,355,2.0,3.0,38,0.00,,,0.00,Wunderground v.1.13,2014-02-22 19:06:00,
2014-02-22 11:11:00,66.8,41.0,30.00,NNW,331,0.0,1.0,39,0.00,,,0.00,Wunderground v.1.13,2014-02-22 19:11:00,
2014-02-22 11:16:00,67.3,39.4,30.00,West,279,3.0,4.0,36,0.00,,,0.00,Wunderground v.1.13,2014-02-22 19:16:00,
2014-02-22 11:21:00,67.6,39.7,30.00,WNW,290,0.0,3.0,36,0.00,,,0.00,Wunderground v.1.13,2014-02-22 19:21:00,
2014-02-22 11:26:00,67.9,39.2,30.00,NNE,30,0.0,2.0,35,0.00,,,0.00,Wunderground v.1.13,2014-02-22 19:26:00,
2014-02-22 11:31:00,67.9,39.2,30.00,WNW,294,0.0,2.0,35,0.00,,,0.00,Wunderground v.1.13,2014-02-22 19:31:00,
2014-02-22 11:36:00,68.0,39.3,30.00,SSW,193,0.0,2.0,35,0.00,,,0.00,Wunderground v.1.13,2014-02-22 19:36:00,
2014-02-22 11:41:00,68.3,41.0,29.99,WNW,283,2.0,3.0,37,0.00,,,0.00,Wunderground v.1.13,2014-02-22 19:41:00,
2014-02-22 11:46:00,69.0,39.4,29.99,East,89,1.0,3.0,34,0.00,,,0.00,Wunderground v.1.13,2014-02-22 19:46:00,
2014-02-22 11:51:00,68.6,39.8,29.99,NE,53,0.0,3.0,35,0.00,,,0.00,Wunderground v.1.13,2014-02-22 19:51:00,
2014-02-22 11:56:00,68.7,39.2,29.99,NE,55,2.0,3.0,34,0.00,,,0.00,Wunderground v.1.13,2014-02-22 19:56:00,
2014-02-22 12:01:00,68.0,38.6,29.98,ENE,63,0.0,3.0,34,0.00,,,0.00,Wunderground v.1.13,2014-02-22 20:01:00,
2014-02-22 12:06:00,69.2,41.8,29.98,SW,219,2.0,3.0,37,0.00,,,0.00,Wunderground v.1.13,2014-02-22 20:06:00,
2014-02-22 12:11:00,69.6,40.7,29.98,WSW,252,0.0,3.0,35,0.00,,,0.00,Wunderground v.1.13,2014-02-22 20:11:00,
2014-02-22 12:16:00,69.8,40.2,29.98,WNW,290,2.0,3.0,34,0.00,,,0.00,Wunderground v.1.13,2014-02-22 20:16:00,
2014-02-22 12:21:00,69.6,40.0,29.97,South,177,2.0,2.0,34,0.00,,,0.00,Wunderground v.1.13,2014-02-22 20:21:00,
2014-02-22 12:26:00,69.9,39.5,29.97,NNW,344,0.0,1.0,33,0.00,,,0.00,Wunderground v.1.13,2014-02-22 20:26:00,
2014-02-22 12:31:00,69.7,39.3,29.97,ENE,65,2.0,4.0,33,0.00,,,0.00,Wunderground v.1.13,2014-02-22 20:31:00,
2014-02-22 12:36:00,69.3,40.5,29.97,NE,49,1.0,5.0,35,0.00,,,0.00,Wunderground v.1.13,2014-02-22 20:36:00,
2014-02-22 12:41:00,70.3,40.6,29.96,NE,50,2.0,3.0,34,0.00,,,0.00,Wunderground v.1.13,2014-02-22 20:41:00,
2014-02-22 12:46:00,70.3,39.0,29.96,NW,323,1.0,4.0,32,0.00,,,0.00,Wunderground v.1.13,2014-02-22 20:46:00,
2014-02-22 12:51:00,69.8,40.9,29.96,East,88,1.0,2.0,35,0.00,,,0.00,Wunderground v.1.13,2014-02-22 20:51:00,
2014-02-22 12:56:00,70.1,39.6,29.95,West,273,1.0,2.0,33,0.00,,,0.00,Wunderground v.1.13,2014-02-22 20:56:00,
2014-02-22 13:01:00,70.2,42.0,29.95,East,97,0.0,3.0,36,0.00,,,0.00,Wunderground v.1.13,2014-02-22 21:01:00,
2014-02-22 13:06:00,71.1,41.3,29.95,South,174,1.0,6.0,34,0.00,,,0.00,Wunderground v.1.13,2014-02-22 21:06:00,
2014-02-22 13:11:00,71.4,41.6,29.95,SSE,153,1.0,2.0,34,0.00,,,0.00,Wunderground v.1.13,2014-02-22 21:11:00,
2014-02-22 13:17:00,72.1,41.4,29.94,SSW,200,0.0,3.0,33,0.00,,,0.00,Wunderground v.1.13,2014-02-22 21:17:00,
2014-02-22 13:22:00,71.1,40.5,29.94,ENE,63,1.0,3.0,33,0.00,,,0.00,Wunderground v.1.13,2014-02-22 21:22:00,
2014-02-22 13:27:00,71.0,41.2,29.94,East,93,1.0,3.0,34,0.00,,,0.00,Wunderground v.1.13,2014-02-22 21:27:00,
2014-02-22 13:32:00,71.4,44.5,29.94,WSW,240,2.0,3.0,38,0.00,,,0.00,Wunderground v.1.13,2014-02-22 21:32:00,
2014-02-22 13:37:00,72.6,42.6,29.93,South,180,0.0,3.0,34,0.00,,,0.00,Wunderground v.1.13,2014-02-22 21:37:00,
2014-02-22 13:42:00,72.8,44.3,29.93,SSW,208,2.0,5.0,36,0.00,,,0.00,Wunderground v.1.13,2014-02-22 21:42:00,
2014-02-22 13:47:00,73.3,43.2,29.93,SW,220,2.0,5.0,34,0.00,,,0.00,Wunderground v.1.13,2014-02-22 21:47:00,
2014-02-22 13:52:00,72.6,43.4,29.93,SW,236,2.0,5.0,35,0.00,,,0.00,Wunderground v.1.13,2014-02-22 21:52:00,
2014-02-22 13:57:00,72.8,42.8,29.93,SSW,200,1.0,3.0,34,0.00,,,0.00,Wunderground v.1.13,2014-02-22 21:57:00,
2014-02-22 14:02:00,72.4,43.2,29.93,South,183,0.0,3.0,35,0.00,,,0.00,Wunderground v.1.13,2014-02-22 22:02:00,
2014-02-22 14:07:00,71.7,44.7,29.92,ESE,116,1.0,5.0,38,0.00,,,0.00,Wunderground v.1.13,2014-02-22 22:07:00,
2014-02-22 14:12:00,72.8,44.3,29.92,SE,141,1.0,4.0,36,0.00,,,0.00,Wunderground v.1.13,2014-02-22 22:12:00,
2014-02-22 14:17:00,72.5,45.4,29.92,SSW,209,1.0,5.0,38,0.00,,,0.00,Wunderground v.1.13,2014-02-22 22:17:00,
2014-02-22 14:22:00,73.1,45.3,29.92,ENE,61,1.0,3.0,37,0.00,,,0.00,Wunderground v.1.13,2014-02-22 22:22:00,
2014-02-22 14:27:00,73.0,45.2,29.92,SE,139,0.0,4.0,37,0.00,,,0.00,Wunderground v.1.13,2014-02-22 22:27:00,
2014-02-22 14:32:00,72.9,45.1,29.92,SSW,194,1.0,3.0,37,0.00,,,0.00,Wunderground v.1.13,2014-02-22 22:32:00,
2014-02-22 14:37:00,73.0,44.5,29.92,SSW,206,2.0,4.0,36,0.00,,,0.00,Wunderground v.1.13,2014-02-22 22:37:00,
2014-02-22 14:42:00,72.5,44.0,29.92,East,80,0.0,4.0,36,0.00,,,0.00,Wunderground v.1.13,2014-02-22 22:42:00,
2014-02-22 14:47:00,72.2,45.9,29.92,SW,218,3.0,4.0,39,0.00,,,0.00,Wunderground v.1.13,2014-02-22 22:47:00,
2014-02-22 14:52:00,73.1,45.3,29.92,East,80,2.0,5.0,37,0.00,,,0.00,Wunderground v.1.13,2014-02-22 22:52:00,
2014-02-22 14:57:00,72.8,45.0,29.92,SE,145,0.0,2.0,37,0.00,,,0.00,Wunderground v.1.13,2014-02-22 22:57:00,
2014-02-22 15:02:00,73.3,46.8,29.91,SW,218,1.0,1.0,39,0.00,,,0.00,Wunderground v.1.13,2014-02-22 23:02:00,
2014-02-22 15:07:00,73.2,46.8,29.91,SSW,207,0.0,1.0,39,0.00,,,0.00,Wunderground v.1.13,2014-02-22 23:07:00,
2014-02-22 15:12:00,73.2,46.1,29.91,SSW,194,1.0,1.0,38,0.00,,,0.00,Wunderground v.1.13,2014-02-22 23:12:00,
2014-02-22 15:17:00,73.0,45.9,29.91,SW,225,3.0,3.0,38,0.00,,,0.00,Wunderground v.1.13,2014-02-22 23:17:00,
2014-02-22 15:22:00,73.1,46.7,29.91,SSE,154,1.0,2.0,39,0.00,,,0.00,Wunderground v.1.13,2014-02-22 23:22:00,
2014-02-22 15:27:00,72.9,47.2,29.91,SSW,201,0.0,1.0,40,0.00,,,0.00,Wunderground v.1.13,2014-02-22 23:27:00,
2014-02-22 15:32:00,73.1,46.7,29.91,SSW,207,1.0,1.0,39,0.00,,,0.00,Wunderground v.1.13,2014-02-22 23:32:00,
2014-02-22 15:37:00,72.8,47.1,29.91,South,169,1.0,3.0,40,0.00,,,0.00,Wunderground v.1.13,2014-02-22 23:37:00,
2014-02-22 15:42:00,72.6,46.9,29.91,SW,227,3.0,3.0,40,0.00,,,0.00,Wunderground v.1.13,2014-02-22 23:42:00,
2014-02-22 15:47:00,72.4,45.4,29.91,East,80,0.0,1.0,38,0.00,,,0.00,Wunderground v.1.13,2014-02-22 23:47:00,
2014-02-22 15:52:00,72.4,46.0,29.91,South,182,3.0,3.0,39,0.00,,,0.00,Wunderground v.1.13,2014-02-22 23:52:00,
2014-02-22 15:57:00,72.2,45.9,29.90,SSW,202,1.0,4.0,39,0.00,,,0.00,Wunderground v.1.13,2014-02-22 23:57:00,
2014-02-22 16:02:00,72.2,45.9,29.90,SSE,162,0.0,1.0,39,0.00,,,0.00,Wunderground v.1.13,2014-02-23 00:02:00,
2014-02-22 16:07:00,72.4,45.4,29.90,South,187,0.0,1.0,38,0.00,,,0.00,Wunderground v.1.13,2014-02-23 00:07:00,
2014-02-22 16:13:00,72.3,45.3,29.90,SSE,156,2.0,3.0,38,0.00,,,0.00,Wunderground v.1.13,2014-02-23 00:13:00,
2014-02-22 16:18:00,71.7,44.0,29.90,SSW,192,2.0,2.0,37,0.00,,,0.00,Wunderground v.1.13,2014-02-23 00:18:00,
2014-02-22 16:23:00,71.5,43.8,29.90,SSW,206,0.0,1.0,37,0.00,,,0.00,Wunderground v.1.13,2014-02-23 00:23:00,
2014-02-22 16:28:00,71.4,43.8,29.90,SSW,192,1.0,2.0,37,0.00,,,0.00,Wunderground v.1.13,2014-02-23 00:28:00,
2014-02-22 16:33:00,71.3,43.7,29.90,SSW,196,2.0,2.0,37,0.00,,,0.00,Wunderground v.1.13,2014-02-23 00:33:00,
2014-02-22 16:38:00,71.1,42.8,29.90,South,190,2.0,4.0,36,0.00,,,0.00,Wunderground v.1.13,2014-02-23 00:38:00,
2014-02-22 16:43:00,71.0,43.4,29.90,SE,140,0.0,1.0,37,0.00,,,0.00,Wunderground v.1.13,2014-02-23 00:43:00,
2014-02-22 16:48:00,70.8,43.2,29.90,SSE,149,0.0,2.0,37,0.00,,,0.00,Wunderground v.1.13,2014-02-23 00:48:00,
2014-02-22 16:53:00,70.5,43.0,29.90,SE,131,0.0,1.0,37,0.00,,,0.00,Wunderground v.1.13,2014-02-23 00:53:00,
2014-02-22 16:58:00,70.5,43.7,29.90,SSW,194,0.0,1.0,38,0.00,,,0.00,Wunderground v.1.13,2014-02-23 00:58:00,
2014-02-22 17:03:00,70.4,42.9,29.90,SSW,205,0.0,0.0,37,0.00,,,0.00,Wunderground v.1.13,2014-02-23 01:03:00,
2014-02-22 17:10:00,70.2,43.4,29.90,South,190,0.0,1.0,38,0.00,,,0.00,Wunderground v.1.13,2014-02-23 01:10:00,
2014-02-22 17:15:00,70.0,43.2,29.90,SSW,196,0.0,4.0,38,0.00,,,0.00,Wunderground v.1.13,2014-02-23 01:15:00,
2014-02-22 17:20:00,69.8,43.7,29.90,SSW,192,0.0,3.0,39,0.00,,,0.00,Wunderground v.1.13,2014-02-23 01:20:00,
2014-02-22 17:25:00,69.5,44.1,29.90,SSW,212,0.0,2.0,40,0.00,,,0.00,Wunderground v.1.13,2014-02-23 01:25:00,
2014-02-22 17:30:00,69.2,43.8,29.90,SSW,200,1.0,4.0,40,0.00,,,0.00,Wunderground v.1.13,2014-02-23 01:30:00,
2014-02-22 17:35:00,68.8,43.5,29.90,SSW,212,0.0,2.0,40,0.00,,,0.00,Wunderground v.1.13,2014-02-23 01:35:00,
2014-02-22 17:40:00,68.4,43.8,29.90,SSW,207,0.0,3.0,41,0.00,,,0.00,Wunderground v.1.13,2014-02-23 01:40:00,
2014-02-22 17:45:00,68.1,44.1,29.90,WSW,240,0.0,3.0,42,0.00,,,0.00,Wunderground v.1.13,2014-02-23 01:45:00,
2014-02-22 17:50:00,67.9,44.6,29.90,South,175,0.0,4.0,43,0.00,,,0.00,Wunderground v.1.13,2014-02-23 01:50:00,
2014-02-22 17:55:00,67.6,44.9,29.90,SSW,202,0.0,5.0,44,0.00,,,0.00,Wunderground v.1.13,2014-02-23 01:55:00,
2014-02-22 18:01:00,67.3,45.2,29.90,SSW,213,0.0,1.0,45,0.00,,,0.00,Wunderground v.1.13,2014-02-23 02:01:00,
2014-02-22 18:06:00,66.9,45.4,29.90,SSW,200,0.0,2.0,46,0.00,,,0.00,Wunderground v.1.13,2014-02-23 02:06:00,
2014-02-22 18:11:00,66.7,45.8,29.90,SSW,198,0.0,0.0,47,0.00,,,0.00,Wunderground v.1.13,2014-02-23 02:11:00,
2014-02-22 18:16:00,65.8,46.1,29.90,SSE,159,0.0,1.0,49,0.00,,,0.00,Wunderground v.1.13,2014-02-23 02:16:00,
2014-02-22 18:21:00,65.2,45.5,29.90,South,173,0.0,2.0,49,0.00,,,0.00,Wunderground v.1.13,2014-02-23 02:21:00,
2014-02-22 18:26:00,64.6,45.5,29.90,South,188,0.0,4.0,50,0.00,,,0.00,Wunderground v.1.13,2014-02-23 02:26:00,
2014-02-22 18:31:00,64.3,45.8,29.90,SSW,194,2.0,3.0,51,0.00,,,0.00,Wunderground v.1.13,2014-02-23 02:31:00,
2014-02-22 18:36:00,64.0,46.0,29.90,SW,216,0.0,1.0,52,0.00,,,0.00,Wunderground v.1.13,2014-02-23 02:36:00,
2014-02-22 18:41:00,63.8,45.8,29.90,South,184,0.0,2.0,52,0.00,,,0.00,Wunderground v.1.13,2014-02-23 02:41:00,
2014-02-22 18:46:00,63.5,46.1,29.90,SSW,197,0.0,2.0,53,0.00,,,0.00,Wunderground v.1.13,2014-02-23 02:46:00,
2014-02-22 18:51:00,63.1,46.2,29.90,SSW,206,0.0,2.0,54,0.00,,,0.00,Wunderground v.1.13,2014-02-23 02:51:00,
2014-02-22 18:56:00,62.9,46.0,29.90,SSW,207,0.0,1.0,54,0.00,,,0.00,Wunderground v.1.13,2014-02-23 02:56:00,
2014-02-22 19:01:00,62.7,45.8,29.90,SSW,207,0.0,0.0,54,0.00,,,0.00,Wunderground v.1.13,2014-02-23 03:01:00,
2014-02-22 19:06:00,62.6,45.7,29.90,SSW,207,0.0,0.0,54,0.00,,,0.00,Wunderground v.1.13,2014-02-23 03:06:00,
2014-02-22 19:11:00,62.6,45.7,29.90,SSW,207,0.0,0.0,54,0.00,,,0.00,Wunderground v.1.13,2014-02-23 03:11:00,
2014-02-22 19:16:00,62.4,45.5,29.90,SSW,207,0.0,0.0,54,0.00,,,0.00,Wunderground v.1.13,2014-02-23 03:16:00,
2014-02-22 19:21:00,62.2,45.3,29.90,SSW,207,0.0,0.0,54,0.00,,,0.00,Wunderground v.1.13,2014-02-23 03:21:00,
2014-02-22 19:26:00,62.0,45.6,29.90,SSW,207,0.0,0.0,55,0.00,,,0.00,Wunderground v.1.13,2014-02-23 03:26:00,
2014-02-22 19:31:00,61.8,45.5,29.90,SSW,207,0.0,0.0,55,0.00,,,0.00,Wunderground v.1.13,2014-02-23 03:31:00,
2014-02-22 19:36:00,61.6,45.3,29.90,SSW,207,0.0,0.0,55,0.00,,,0.00,Wunderground v.1.13,2014-02-23 03:36:00,
2014-02-22 19:41:00,61.3,45.5,29.90,SSW,207,0.0,0.0,56,0.00,,,0.00,Wunderground v.1.13,2014-02-23 03:41:00,
2014-02-22 19:46:00,61.1,45.3,29.90,SSW,207,0.0,0.0,56,0.00,,,0.00,Wunderground v.1.13,2014-02-23 03:46:00,
2014-02-22 19:51:00,60.7,45.4,29.90,SSW,207,0.0,0.0,57,0.00,,,0.00,Wunderground v.1.13,2014-02-23 03:51:00,
2014-02-22 19:56:00,60.4,45.5,29.90,SSW,207,0.0,0.0,58,0.00,,,0.00,Wunderground v.1.13,2014-02-23 03:56:00,
2014-02-22 20:01:00,60.0,45.6,29.91,SSW,207,0.0,0.0,59,0.00,,,0.00,Wunderground v.1.13,2014-02-23 04:01:00,
2014-02-22 20:06:00,59.7,45.8,29.91,SSW,207,0.0,0.0,60,0.00,,,0.00,Wunderground v.1.13,2014-02-23 04:06:00,
2014-02-22 20:11:00,59.6,45.7,29.91,SSW,207,0.0,0.0,60,0.00,,,0.00,Wunderground v.1.13,2014-02-23 04:11:00,
2014-02-22 20:16:00,59.1,45.2,29.91,SSW,207,0.0,0.0,60,0.00,,,0.00,Wunderground v.1.13,2014-02-23 04:16:00,
2014-02-22 20:21:00,59.0,45.1,29.91,SSW,207,0.0,0.0,60,0.00,,,0.00,Wunderground v.1.13,2014-02-23 04:21:00,
2014-02-22 20:26:00,59.0,45.1,29.91,SSW,207,0.0,0.0,60,0.00,,,0.00,Wunderground v.1.13,2014-02-23 04:26:00,
2014-02-22 20:31:00,58.6,45.2,29.91,SSW,207,0.0,0.0,61,0.00,,,0.00,Wunderground v.1.13,2014-02-23 04:31:00,
2014-02-22 20:36:00,58.3,45.3,29.92,SSW,207,0.0,0.0,62,0.00,,,0.00,Wunderground v.1.13,2014-02-23 04:36:00,
2014-02-22 20:41:00,58.0,45.5,29.92,SSW,207,0.0,0.0,63,0.00,,,0.00,Wunderground v.1.13,2014-02-23 04:41:00,
2014-02-22 20:46:00,57.8,45.3,29.92,SSW,207,0.0,0.0,63,0.00,,,0.00,Wunderground v.1.13,2014-02-23 04:46:00,
2014-02-22 20:51:00,57.6,45.1,29.92,SSW,207,0.0,0.0,63,0.00,,,0.00,Wunderground v.1.13,2014-02-23 04:51:00,
2014-02-22 20:56:00,57.4,44.9,29.92,SSW,207,0.0,0.0,63,0.00,,,0.00,Wunderground v.1.13,2014-02-23 04:56:00,
2014-02-22 21:01:00,57.2,44.7,29.92,SSW,207,0.0,0.0,63,0.00,,,0.00,Wunderground v.1.13,2014-02-23 05:01:00,
2014-02-22 21:02:00,57.2,44.7,29.92,SSW,207,0.0,0.0,63,0.00,,,0.00,Wunderground v.1.13,2014-02-23 05:02:00,
2014-02-22 21:07:00,56.9,44.8,29.93,SSW,207,0.0,0.0,64,0.00,,,0.00,Wunderground v.1.13,2014-02-23 05:07:00,
2014-02-22 21:12:00,56.7,45.1,29.93,SSW,207,0.0,0.0,65,0.00,,,0.00,Wunderground v.1.13,2014-02-23 05:12:00,
2014-02-22 21:17:00,56.5,44.9,29.93,SSW,207,0.0,0.0,65,0.00,,,0.00,Wunderground v.1.13,2014-02-23 05:17:00,
2014-02-22 21:22:00,56.3,44.7,29.93,SSW,207,0.0,0.0,65,0.00,,,0.00,Wunderground v.1.13,2014-02-23 05:22:00,
2014-02-22 21:27:00,56.0,44.8,29.93,SSW,207,0.0,0.0,66,0.00,,,0.00,Wunderground v.1.13,2014-02-23 05:27:00,
2014-02-22 21:32:00,55.8,44.6,29.93,SSW,207,0.0,0.0,66,0.00,,,0.00,Wunderground v.1.13,2014-02-23 05:32:00,
2014-02-22 21:37:00,55.6,44.8,29.93,SSW,207,0.0,0.0,67,0.00,,,0.00,Wunderground v.1.13,2014-02-23 05:37:00,
2014-02-22 21:42:00,55.4,44.6,29.93,SSW,207,0.0,0.0,67,0.00,,,0.00,Wunderground v.1.13,2014-02-23 05:42:00,
2014-02-22 21:47:00,55.1,44.7,29.93,SSW,207,0.0,0.0,68,0.00,,,0.00,Wunderground v.1.13,2014-02-23 05:47:00,
2014-02-22 21:52:00,55.0,44.6,29.93,SSW,207,0.0,0.0,68,0.00,,,0.00,Wunderground v.1.13,2014-02-23 05:52:00,
2014-02-22 21:57:00,54.7,44.7,29.93,SSW,207,0.0,0.0,69,0.00,,,0.00,Wunderground v.1.13,2014-02-23 05:57:00,
2014-02-22 22:02:00,54.6,44.6,29.93,SSW,207,0.0,0.0,69,0.00,,,0.00,Wunderground v.1.13,2014-02-23 06:02:00,
2014-02-22 22:07:00,54.4,44.4,29.93,SSW,207,0.0,0.0,69,0.00,,,0.00,Wunderground v.1.13,2014-02-23 06:07:00,
2014-02-22 22:12:00,54.3,44.7,29.93,SSW,207,0.0,0.0,70,0.00,,,0.00,Wunderground v.1.13,2014-02-23 06:12:00,
2014-02-22 22:17:00,54.1,44.5,29.93,SSW,207,0.0,0.0,70,0.00,,,0.00,Wunderground v.1.13,2014-02-23 06:17:00,
2014-02-22 22:22:00,53.9,44.3,29.93,SSW,207,0.0,0.0,70,0.00,,,0.00,Wunderground v.1.13,2014-02-23 06:22:00,
2014-02-22 22:27:00,53.8,44.2,29.93,SSW,207,0.0,0.0,70,0.00,,,0.00,Wunderground v.1.13,2014-02-23 06:27:00,
2014-02-22 22:32:00,53.6,44.0,29.93,SSW,207,0.0,0.0,70,0.00,,,0.00,Wunderground v.1.13,2014-02-23 06:32:00,
2014-02-22 22:37:00,53.4,44.2,29.93,SSW,207,0.0,0.0,71,0.00,,,0.00,Wunderground v.1.13,2014-02-23 06:37:00,
2014-02-22 22:42:00,53.2,44.0,29.93,SSW,207,0.0,0.0,71,0.00,,,0.00,Wunderground v.1.13,2014-02-23 06:42:00,
2014-02-22 22:48:00,53.0,43.8,29.93,SSW,207,0.0,0.0,71,0.00,,,0.00,Wunderground v.1.13,2014-02-23 06:48:00,
2014-02-22 22:53:00,52.8,44.0,29.93,SSW,207,0.0,0.0,72,0.00,,,0.00,Wunderground v.1.13,2014-02-23 06:53:00,
2014-02-22 22:57:00,52.7,43.9,29.93,SSW,207,0.0,0.0,72,0.00,,,0.00,Wunderground v.1.13,2014-02-23 06:57:00,
2014-02-22 23:03:00,52.5,43.7,29.93,SSW,207,0.0,0.0,72,0.00,,,0.00,Wunderground v.1.13,2014-02-23 07:03:00,
2014-02-22 23:10:00,52.3,43.9,29.93,SSW,207,0.0,0.0,73,0.00,,,0.00,Wunderground v.1.13,2014-02-23 07:10:00,
2014-02-22 23:15:00,52.2,43.8,29.93,SSW,207,0.0,0.0,73,0.00,,,0.00,Wunderground v.1.13,2014-02-23 07:15:00,
2014-02-22 23:20:00,52.0,43.6,29.93,SSW,207,0.0,0.0,73,0.00,,,0.00,Wunderground v.1.13,2014-02-23 07:20:00,
2014-02-22 23:25:00,51.9,43.9,29.93,SSW,207,0.0,0.0,74,0.00,,,0.00,Wunderground v.1.13,2014-02-23 07:25:00,
2014-02-22 23:30:00,51.7,43.7,29.94,SSW,207,0.0,0.0,74,0.00,,,0.00,Wunderground v.1.13,2014-02-23 07:30:00,
2014-02-22 23:35:00,51.6,43.6,29.94,SSW,207,0.0,0.0,74,0.00,,,0.00,Wunderground v.1.13,2014-02-23 07:35:00,
2014-02-22 23:40:00,51.4,43.7,29.94,SSW,207,0.0,1.0,75,0.00,,,0.00,Wunderground v.1.13,2014-02-23 07:40:00,
2014-02-22 23:45:00,51.3,43.6,29.94,SSW,207,0.0,0.0,75,0.00,,,0.00,Wunderground v.1.13,2014-02-23 07:45:00,
2014-02-22 23:50:00,51.3,44.0,29.94,SSW,207,0.0,0.0,76,0.00,,,0.00,Wunderground v.1.13,2014-02-23 07:50:00,
2014-02-22 23:55:00,51.2,43.9,29.94,SSW,207,0.0,0.0,76,0.00,,,0.00,Wunderground v.1.13,2014-02-23 07:55:00,